User: anonymous   Login
Location: ??
(35.4032°N, 139.3073°E)
Time: 03:41:01
(UTC+00:00)
Language:

Sich 1 - Orbit

View from above orbital plane
View from above orbital plane
View from above satellite
View from above satellite

Ground track
Ground track

The orbit data is extracted from the following two-line orbital elements,

1 23657U 95046A   24167.85888293  .00002124  00000-0  21736-3 0  9999
2 23657  82.5261  16.7278 0018821 249.9552 109.9641 14.89967408556884
Epoch (UTC): 15 June 2024 20:36:47
Eccentricity: 0.0018821
inclination: 82.5261°
perigee height: 585 km
apogee height: 611 km
right ascension of ascending node: 16.7278°
argument of perigee: 249.9552°
revolutions per day: 14.89967408
mean anomaly at epoch: 109.9641°
orbit number at epoch: 55688

The dashed part of the orbit path shows where the satellite is in the earth's shadow,  

DLR